Find Think Orbital F2

NORAD ID: 62380 Int'l Des: NNA 2024-247 Owner: THINK Country: US operational
LEOCIRCULAR

当前视图

正在加载3D地球...

About Think Orbital F2

Think Orbital F2 (NORAD 62380) is a satellite launched Dec 21, 2024 by THINK of US. It operates in LEO, CIRCULAR orbit with a mass of 20.00 kg.

即将过境

Passes for default location (London). Set your location on the main map for personalized predictions.

高度历史

Loading altitude history...

两行轨道根数

1 62380U 24247D 26194.24945429 .00005195 00000-0 17825-3 0 9995
2 62380 44.9947 146.4375 0002761 47.7948 312.3170 15.31339542 86998
Epoch: Jul 13, 2026 • Age: 27 hours

当前状态

高度 472.9 km
远地点 / 近地点 N/A
速度 7.63 km/s
星下点 35.28°N, 153.97°W
发射日期 Dec 21, 2024
运行时间 1.5 years
类型 other

技术详情

分类 Payload
质量 20.00 kg
干质量 20.00 kg
总质量 20.00 kg
长度 0.30 m
直径 0.20 m
跨度 2.00 m
形状 Box+2 pan
制造商 THINK
平台类型 Cubesat 12U
阶段状态 In Orbit
所有者/国家 THINK/US

Most Searched